{"data":{"norad_id":67752,"epoch":"2026-05-24T22:01:18.581952Z","epoch_age_seconds":88940,"freshness":"FRESH","line1":"1 67752U 26027G   26144.91757618  .00004718  00000+0  26974-3 0  9995","line2":"2 67752  97.5034 272.5920 0011478 336.1850  23.8848 15.13105080 15385","mean_motion":15.1310508,"eccentricity":0.0011478,"inclination_deg":97.5034,"raan_deg":272.592,"arg_perigee_deg":336.185,"mean_anomaly_deg":23.8848,"bstar":0.00026974,"rev_number":1538,"period_min":95.168539120892,"perigee_km":518.81196310442,"apogee_km":534.66279272636,"semimajor_km":6904.8743779154,"source":"CELESTRAK","updated_at":"2026-05-25T13:38:07.231777Z"}}